This is the latest recevied weather packets stored in our database for station/object KJ6HT. If no packets are shown the sender has not sent any weather packets the latest 10 day(s).
| Time | Temp. | Humidity | Pressure | Rain* | Wind** | Luminosity | Snow |
|---|---|---|---|---|---|---|---|
| 1777236357 | 18.89° C | 51% | 1013.2 hPa | 0 mm | - | - | - |
| 1777235494 | 18.33° C | 52% | 1013.1 hPa | 0 mm | - | - | - |
| 1777234554 | 17.78° C | 51% | 1013 hPa | 0 mm | - | - | - |
| 1777233697 | 17.78° C | 50% | 1013.1 hPa | 0 mm | - | - | - |
| 1777232754 | 17.78° C | 55% | 1013 hPa | 0 mm | - | - | - |
| 1777231903 | 18.33° C | 54% | 1013 hPa | 0 mm | - | - | - |
| 1777230955 | 17.78° C | 56% | 1013.2 hPa | 0 mm | - | - | - |
| 1777230005 | 17.78° C | 60% | 1013.3 hPa | 0 mm | - | - | - |
| 1777229102 | 17.22° C | 62% | 1013.3 hPa | 0 mm | - | - | - |
| 1777228247 | 16.67° C | 65% | 1013.4 hPa | 0 mm | - | - | - |
| 1777227310 | 16.11° C | 70% | 1013.4 hPa | 0 mm | - | - | - |
| 1777226440 | 15.56° C | 69% | 1013.6 hPa | 0 mm | - | - | - |
| 1777225594 | 15.56° C | 73% | 1013.5 hPa | 0 mm | - | - | - |
| 1777224651 | 14.44° C | 76% | 1013.3 hPa | 0 mm | - | - | - |
| 1777223705 | 14.44° C | 74% | 1013.2 hPa | 0 mm | - | - | - |
| 1777222878 | 15° C | 72% | 1012.9 hPa | 0 mm | - | - | - |
| 1777221915 | 15° C | 75% | 1012.8 hPa | 0 mm | - | - | - |
| 1777221095 | 13.89° C | 79% | 1012.8 hPa | 0 mm | - | - | - |
| 1777220153 | 13.33° C | 80% | 1012.8 hPa | 0 mm | - | - | - |
| 1777219250 | 13.89° C | 82% | 1012.5 hPa | 0 mm | - | - | - |
| 1777218302 | 12.78° C | 86% | 1012.4 hPa | 0 mm | - | - | - |
| 1777217450 | 12.78° C | 87% | 1012.3 hPa | 0 mm | - | - | - |
| 1777216508 | 12.78° C | 86% | 1012.3 hPa | 0 mm | - | - | - |
| 1777215661 | 12.22° C | 87% | 1012.3 hPa | 0 mm | - | - | - |
| 1777214710 | 12.22° C | 89% | 1012.3 hPa | 0 mm | - | - | - |
* Rain latest hour (hover to see other rain measurements)
** Current wind speed in m/s (hover to see current wind gust speed)